Location: Berg
(47.2344°N, 9.5296°E)
Time: 12:39:14
(UTC+00:00)

SeaSat 1 - Pass Details

Date: 24 January 2021
Orbit: 744 x 747 km, 108.0° (Epoch: 06 March)

Event Time Altitude Azimuth Distance (km) Brightness Sun altitude
Rises 17:01:17 0° 21° (NNE) 3,201 5.3 -8.5°
Reaches altitude 10° 17:03:47 10° 10° (N) 2,273 4.7 -8.9°
Maximum altitude 17:07:59 29° 312° (NW) 1,359 4.2 -9.6°
Drops below altitude 10° 17:12:10 10° 254° (WSW) 2,264 6.6 -10.3°
Sets 17:14:40 0° 243° (WSW) 3,185 7.7 -10.7°
